Hundvaag 1 weather for Oct 1990
Month no. 40
Obs.
Da.
Temp. Dew Point Precip. Wind
Speed
Wind gusts Cloud cover Press. Humidity Wind dir. Sunny OPT
01.10.1990 7,1   15,3                
02.10.1990 10,3   6,2                
03.10.1990 13,0   0,1                
04.10.1990 8,3   20,1                
05.10.1990 7,9   21,0                
06.10.1990 8,6   15,3                
07.10.1990 7,8   20,0                
08.10.1990 5,0   2,1                
09.10.1990 10,0   46,2                
10.10.1990 7,9   11,0             1  
11.10.1990 6,0   6,5             1  
12.10.1990 8,0   2,1                
13.10.1990 14,0   0,1             1  
14.10.1990 15,8   0,0             1  
15.10.1990 8,3   0,0             1  
16.10.1990 16,0   1,1                
17.10.1990 12,3   8,2             1  
18.10.1990 6,4   0,0             1  
19.10.1990 4,3   0,0             1  
20.10.1990 8,5   0,0             1  
21.10.1990 1,0   0,0             1  
22.10.1990 2,2   0,0             1  
23.10.1990 0,4   0,0             1  
24.10.1990 3,5   0,0             1  
25.10.1990 3,7   0,0             1  
26.10.1990 8,1   0,0             1  
27.10.1990 8,6   0,0                
28.10.1990 10,1   1,8                
29.10.1990 8,3   0,0                
30.10.1990 4,9   17,0                
31.10.1990 7,7   6,9             1  
Avrg/Sum 7,9   201,0             16